Location: Most
(50.5133°N, 13.6207°E)
Time: 23:41:31
(UTC+02:00)

ISS - Pass Details

Date: 29 March 2017
Orbit: 401 x 409 km, 51.6° (Epoch: 29 April)

Event Time Altitude Azimuth Distance (km) Brightness Sun altitude
Rises 21:28:16 0° 239° (WSW) 2,314 0.4 -18.1°
Reaches altitude 10° 21:30:22 10° 234° (SW) 1,458 -0.7 -18.3°
Enters shadow 21:33:05 48° 192° (SSW) 537 -3.4 -18.7°
